< < Back
Terminal Aerodrome Forecast


Current Version              Previous Versions:   1  2  3  4  5  6  7  8  9  

Terminal Aerodrome Forecast

043
FTUS42 KFFC 222300
TAFATL
TAF
KATL 222328Z 2300/2406 30006KT P6SM FEW250
     FM231500 32008KT P6SM FEW035
     FM231700 33008KT P6SM SCT045 PROB30 2318/2322 -TSRA BKN035CB
     FM240200 34006KT P6SM SCT250=

Latest METAR

399
SAUS70 KWBC 230700
MTRATL
METAR KATL 230652Z 32006KT 10SM FEW250 26/22 A3001 RMK AO2 SLP150
T02560217 $


USA.gov is the U.S. government's official web portal to all federal, state and local government web resources and services.